TimeCDT,TemperatureF,Dew PointF,Humidity,Sea Level PressureIn,VisibilityMPH,Wind Direction,Wind SpeedMPH,Gust SpeedMPH,PrecipitationIn,Events,Conditions,WindDirDegrees,DateUTC
12:15 AM,60.8,59.0,94,29.73,10.0,North,4.6,-,N/A,,Clear,350,2013-06-29 05:15:00
12:35 AM,60.8,57.2,88,29.73,10.0,North,4.6,-,N/A,,Scattered Clouds,350,2013-06-29 05:35:00
12:55 AM,60.8,57.2,88,29.73,10.0,North,3.5,-,N/A,,Clear,350,2013-06-29 05:55:00
1:15 AM,60.8,57.2,88,29.73,10.0,North,3.5,-,N/A,,Mostly Cloudy,360,2013-06-29 06:15:00
1:35 AM,60.8,57.2,88,29.73,10.0,North,4.6,-,N/A,,Overcast,10,2013-06-29 06:35:00
1:55 AM,59.0,57.2,94,29.73,10.0,North,3.5,-,N/A,,Scattered Clouds,360,2013-06-29 06:55:00
2:15 AM,59.0,57.2,94,29.73,10.0,North,4.6,-,N/A,,Scattered Clouds,360,2013-06-29 07:15:00
2:35 AM,59.0,57.2,94,29.73,10.0,North,5.8,-,N/A,,Mostly Cloudy,10,2013-06-29 07:35:00
2:55 AM,59.0,57.2,94,29.73,10.0,NNE,6.9,-,N/A,,Overcast,20,2013-06-29 07:55:00
3:15 AM,60.8,57.2,88,29.73,10.0,NNE,8.1,-,N/A,,Overcast,20,2013-06-29 08:15:00
3:35 AM,60.8,57.2,88,29.73,10.0,NNE,6.9,-,N/A,,Overcast,20,2013-06-29 08:35:00
3:55 AM,60.8,57.2,88,29.73,10.0,NNE,5.8,-,N/A,,Overcast,20,2013-06-29 08:55:00
4:15 AM,60.8,57.2,88,29.73,10.0,North,3.5,-,N/A,,Overcast,10,2013-06-29 09:15:00
4:35 AM,60.8,57.2,88,29.73,10.0,North,3.5,-,N/A,,Overcast,10,2013-06-29 09:35:00
4:55 AM,60.8,57.2,88,29.74,10.0,North,3.5,-,N/A,,Overcast,10,2013-06-29 09:55:00
5:15 AM,60.8,57.2,88,29.74,10.0,North,4.6,-,N/A,,Overcast,360,2013-06-29 10:15:00
5:35 AM,60.8,57.2,88,29.75,10.0,North,4.6,-,N/A,,Overcast,10,2013-06-29 10:35:00
5:55 AM,60.8,57.2,88,29.75,10.0,North,4.6,-,N/A,,Overcast,10,2013-06-29 10:55:00
6:15 AM,60.8,57.2,88,29.75,10.0,North,4.6,-,N/A,,Overcast,10,2013-06-29 11:15:00
6:35 AM,60.8,57.2,88,29.75,10.0,North,3.5,-,N/A,,Overcast,360,2013-06-29 11:35:00
6:55 AM,60.8,59.0,94,29.76,10.0,North,6.9,-,N/A,,Overcast,10,2013-06-29 11:55:00
7:15 AM,60.8,57.2,88,29.77,10.0,NNE,8.1,-,N/A,,Overcast,20,2013-06-29 12:15:00
7:35 AM,60.8,57.2,88,29.77,10.0,NNE,9.2,-,N/A,,Overcast,20,2013-06-29 12:35:00
7:55 AM,60.8,57.2,88,29.78,10.0,NNE,10.4,-,N/A,,Overcast,20,2013-06-29 12:55:00
8:15 AM,60.8,57.2,88,29.78,10.0,NNE,10.4,-,N/A,,Overcast,30,2013-06-29 13:15:00
8:35 AM,60.8,57.2,88,29.78,10.0,NNE,12.7,16.1,N/A,,Overcast,30,2013-06-29 13:35:00
8:55 AM,60.8,57.2,88,29.79,10.0,NE,13.8,19.6,N/A,,Overcast,40,2013-06-29 13:55:00
9:15 AM,59.0,57.2,94,29.80,5.0,NE,12.7,20.7,N/A,,Overcast,40,2013-06-29 14:15:00
10:15 AM,60.8,57.2,88,29.81,10.0,NNE,8.1,-,N/A,,Light Drizzle,20,2013-06-29 15:15:00
11:15 AM,62.6,57.2,82,29.82,10.0,NNE,10.4,-,N/A,,Overcast,30,2013-06-29 16:15:00
11:35 AM,62.6,57.2,82,29.83,10.0,NNE,11.5,-,N/A,,Overcast,30,2013-06-29 16:35:00
11:55 AM,64.4,59.0,83,29.83,10.0,North,10.4,-,N/A,,Overcast,360,2013-06-29 16:55:00
12:35 PM,64.4,59.0,83,29.84,10.0,NNE,11.5,19.6,N/A,Rain,Light Rain,20,2013-06-29 17:35:00
12:55 PM,64.4,60.8,88,29.85,10.0,North,11.5,-,N/A,Rain,Light Rain,10,2013-06-29 17:55:00
1:15 PM,62.6,60.8,94,29.85,10.0,North,6.9,-,N/A,Rain,Light Rain,360,2013-06-29 18:15:00
1:35 PM,62.6,60.8,94,29.85,10.0,North,8.1,-,N/A,Rain,Light Rain,360,2013-06-29 18:35:00
1:55 PM,64.4,60.8,88,29.85,10.0,North,6.9,-,N/A,Rain,Light Rain,10,2013-06-29 18:55:00
2:35 PM,66.2,60.8,83,29.85,10.0,North,8.1,-,N/A,,Clear,10,2013-06-29 19:35:00
2:55 PM,68.0,60.8,78,29.85,10.0,North,11.5,17.3,N/A,,Scattered Clouds,10,2013-06-29 19:55:00
3:35 PM,69.8,57.2,64,29.85,10.0,North,10.4,-,N/A,,Clear,10,2013-06-29 20:35:00
3:55 PM,69.8,57.2,64,29.85,10.0,North,9.2,-,N/A,,Scattered Clouds,360,2013-06-29 20:55:00
4:15 PM,69.8,55.4,60,29.85,10.0,NNE,11.5,20.7,N/A,,Clear,20,2013-06-29 21:15:00
4:55 PM,69.8,55.4,60,29.86,10.0,North,10.4,18.4,N/A,,Clear,10,2013-06-29 21:55:00
5:15 PM,69.8,53.6,56,29.87,10.0,North,11.5,18.4,N/A,,Clear,10,2013-06-29 22:15:00
5:35 PM,69.8,53.6,56,29.87,10.0,North,10.4,16.1,N/A,,Clear,10,2013-06-29 22:35:00
5:55 PM,69.8,53.6,56,29.87,10.0,North,9.2,18.4,N/A,,Clear,10,2013-06-29 22:55:00
6:15 PM,68.0,53.6,60,29.87,10.0,North,8.1,-,N/A,,Scattered Clouds,10,2013-06-29 23:15:00
6:35 PM,68.0,53.6,60,29.88,10.0,North,6.9,-,N/A,,Mostly Cloudy,10,2013-06-29 23:35:00
6:55 PM,68.0,53.6,60,29.89,10.0,North,6.9,-,N/A,,Scattered Clouds,10,2013-06-29 23:55:00
7:15 PM,68.0,53.6,60,29.89,10.0,North,6.9,-,N/A,,Scattered Clouds,10,2013-06-30 00:15:00
7:35 PM,66.2,53.6,64,29.89,10.0,North,8.1,-,N/A,,Scattered Clouds,10,2013-06-30 00:35:00
7:55 PM,66.2,53.6,64,29.90,10.0,North,8.1,-,N/A,,Scattered Clouds,10,2013-06-30 00:55:00
8:15 PM,64.4,51.8,64,29.90,10.0,North,8.1,-,N/A,,Clear,10,2013-06-30 01:15:00
8:35 PM,64.4,51.8,64,29.91,10.0,North,5.8,-,N/A,,Clear,10,2013-06-30 01:35:00
8:55 PM,64.4,51.8,64,29.91,10.0,North,5.8,-,N/A,,Clear,10,2013-06-30 01:55:00
9:15 PM,62.6,51.8,68,29.92,10.0,North,8.1,-,N/A,,Clear,10,2013-06-30 02:15:00
9:35 PM,62.6,50.0,63,29.93,10.0,North,10.4,-,N/A,,Clear,10,2013-06-30 02:35:00
9:55 PM,60.8,48.2,63,29.94,10.0,North,9.2,-,N/A,,Clear,10,2013-06-30 02:55:00
10:35 PM,59.0,48.2,67,29.95,10.0,NNE,5.8,-,N/A,,Clear,20,2013-06-30 03:35:00
10:55 PM,57.2,48.2,72,29.95,10.0,North,4.6,-,N/A,,Scattered Clouds,10,2013-06-30 03:55:00
11:15 PM,57.2,48.2,72,29.95,10.0,North,4.6,-,N/A,,Scattered Clouds,10,2013-06-30 04:15:00
11:35 PM,57.2,48.2,72,29.95,10.0,North,4.6,-,N/A,,Clear,10,2013-06-30 04:35:00
11:55 PM,57.2,48.2,72,29.96,10.0,North,4.6,-,N/A,,Clear,10,2013-06-30 04:55:00